Regional Weather Roundup
Issued by NWS

Home | Current Version | Previous Version | Graphics & Text | Print | Product List | Glossary On
Versions: 1 2 3 4 5 6 7 8 9 10 11 12 13 14 15 16 17 18 19 20 21 22 23 24 25 26 27 28 29 30 31 32 33 34 35 36 37 38 39 40 41 42 43 44 45 46 47 48 49 50
000
ASUS43 KOAX 291210
RWRNE

WEATHER ROUNDUP FOR NEBRASKA
NATIONAL WEATHER SERVICE OMAHA NE
600 AM CST MON DEC 29 2014

NOTES: SATELLITE DATA IS BEING USED TO AUGMENT CLOUD COVER ABOVE
       12000 FEET.
       "FAIR" INDICATES FEW OR NO CLOUDS BELOW 12,000 FEET WITH NO
       SIGNIFICANT WEATHER AND/OR OBSTRUCTIONS TO VISIBILITY.

  * THESE STATIONS DO NOT REPORT WEATHER SUCH AS RAIN...SNOW OR FOG.

NEZ001>004-019>022-054>056-291300-
NEBRASKA PANHANDLE

CITY           SKY/WX    TMP DP  RH WIND       PRES   REMARKS
SCOTTSBLUFF    LGT SNOW  13   8  81 NE20      30.14R WCI  -5
6HR MIN TEMP:  11; 6HR MAX TEMP:  20; 6HR PCP:  0.02;

ALLIANCE       LGT SNOW  13   9  84 NE14      30.14R FOG     WCI  -2
6HR MIN TEMP:  13; 6HR MAX TEMP:  21; 6HR PCP: TRACE;

CHADRON        LGT SNOW  10   6  84 NE12      30.28R FOG     WCI  -5
6HR MIN TEMP:  10; 6HR MAX TEMP:  16; 6HR PCP: TRACE;

KIMBALL        FLURRIES  13  11  90 N13       30.05R WCI  -1
SIDNEY         CLOUDY    15  11  83 N15       30.09R WCI   0
6HR MIN TEMP:   7; 6HR MAX TEMP:  19;

$$

NEZ057>060-069>072-079>082-291300-
SOUTHWEST NEBRASKA

CITY           SKY/WX    TMP DP  RH WIND       PRES   REMARKS
NORTH PLATTE   CLOUDY    18  13  80 NE15      30.18R WCI   4
6HR MIN TEMP:  18; 6HR MAX TEMP:  22;

IMPERIAL       CLOUDY    18  14  84 NE8       30.11R WCI   8
6HR MIN TEMP:   3; 6HR MAX TEMP:  18;

LEXINGTON      CLOUDY    20  17  88 NE9       30.19R WCI   9
MCCOOK         CLEAR      9   7  92 NE5       30.14S FOG     WCI   1
6HR MIN TEMP:   7; 6HR MAX TEMP:  16;

OGALLALA       FLURRIES  19  17  90 NE12      30.14R WCI   7
$$

NEZ005>010-023>029-035>040-094-291300-
NORTH CENTRAL NEBRASKA

CITY           SKY/WX    TMP DP  RH WIND       PRES   REMARKS
VALENTINE      LGT SNOW   8   3  80 NE13      30.32R WCI  -8
6HR MIN TEMP:   8; 6HR MAX TEMP:  16; 6HR PCP:  0.08;

AINSWORTH      LGT SNOW  12   9  87 N13       30.29R WCI  -3
BROKEN BOW     LGT SNOW  18  13  80 NE10      30.21R WCI   6
6HR MIN TEMP:  18; 6HR MAX TEMP:  20; 6HR PCP:  0.02;

O`NEILL        FLURRIES  14  12  92 NE14      30.32R WCI  -1
ORD            LGT SNOW  18  14  84 NE14      30.25R VSB 1   WCI   4
6HR MIN TEMP:  18; 6HR MAX TEMP:  18; 6HR PCP: TRACE;

$$

NEZ041-046>049-061>064-073>077-083>087-291300-
SOUTH CENTRAL NEBRASKA

CITY           SKY/WX    TMP DP  RH WIND       PRES   REMARKS
GRAND ISLAND   LGT SNOW  19  16  88 NE13      30.25R FOG     WCI   6
6HR MIN TEMP:  18; 6HR MAX TEMP:  19; 6HR PCP: TRACE;

AURORA         CLOUDY    20  18  93 NE14      30.24R WCI   7
HASTINGS       CLOUDY    19  16  88 NE12      30.20R WCI   7
6HR MIN TEMP:  19; 6HR MAX TEMP:  22;

HEBRON         MOCLDY    23  20  89 NE5       30.22R WCI  17
HOLDREGE       CLOUDY    19  16  90 NE12      30.17S WCI   6
KEARNEY *      CLOUDY    19  16  86 NE13      30.20S WCI   7
YORK           CLOUDY    19  18  93 NE16      30.24R WCI   5
$$

NEZ011>018-030>034-042>045-291300-
NORTHEAST NEBRASKA

CITY           SKY/WX    TMP DP  RH WIND       PRES   REMARKS
NORFOLK        LGT SNOW  19  15  84 NE12      30.30R FOG     WCI   7
6HR MIN TEMP:  19; 6HR MAX TEMP:  20; 6HR PCP:  0.02;

ALBION         CLOUDY    19  14  82 NE16G22   30.26S WCI   4
BLAIR          CLOUDY    22  19  89 N13       30.27R WCI  10
COLUMBUS *     CLOUDY    19  12  73 NE16      30.28S WCI   5
FREMONT        CLOUDY    21  18  88 N8        30.30R WCI  12
TEKAMAH        CLOUDY    22  18  85 N14       30.32R WCI   9
6HR MIN TEMP:  18; 6HR MAX TEMP:  22;

WAYNE          CLOUDY    19  15  86 NE12      30.35R WCI   6
$$

NEZ050>053-065>068-078-088>093-291300-
SOUTHEAST NEBRASKA

CITY           SKY/WX    TMP DP  RH WIND       PRES   REMARKS
LINCOLN        CLOUDY    22  18  85 N13       30.28R WCI  10
6HR MIN TEMP:  22; 6HR MAX TEMP:  23;

OMAHA EPPLEY   CLOUDY    22  18  85 N14       30.31R WCI   9
6HR MIN TEMP:  21; 6HR MAX TEMP:  24;

BEATRICE       CLOUDY    26  24  93 NE9       30.23R FOG     WCI  16
FALLS CITY     CLOUDY    29  24  82 N3        30.23R
6HR MIN TEMP:  28; 6HR MAX TEMP:  31;

NEBRASKA CITY  CLOUDY    26  25  97 NE12      30.24R WCI  15
PLATTSMOUTH    CLOUDY    23  20  89 N8        30.25R WCI  14
$$

NEZ044-045-051>053-067-291300-
OMAHA AREA

CITY           SKY/WX    TMP DP  RH WIND       PRES   REMARKS
OMAHA EPPLEY   CLOUDY    22  18  85 N14       30.31R WCI   9
6HR MIN TEMP:  21; 6HR MAX TEMP:  24;

BLAIR          CLOUDY    22  19  89 N13       30.27R WCI  10
FREMONT        CLOUDY    21  18  88 N8        30.30R WCI  12
MILLARD        CLOUDY    23  19  83 N5        30.29R WCI  17
OFFUTT AFB     MOCLDY    23  19  85 N10       30.28R WCI  12
PLATTSMOUTH    CLOUDY    23  20  89 N8        30.25R WCI  14
WAHOO          CLOUDY    21  17  84 N12       30.28R WCI   9
$$


USA.gov is the U.S. government's official web portal to all federal, state and local government web resources and services.